Weather History for Shreveport, LA

Change the Weather History Date:

Tuesday, December 24, 2013

  Actual Average Record
Temperature  
Mean Temperature 39 °F 47 °F  
Max Temperature 50 °F 57 °F 84 °F (1955)
Min Temperature 27 °F 37 °F 8 °F (1983)
Degree Days  
Heating Degree Days 26 18  
Month to date heating degree days 416 399  
Since 1 July heating degree days 827 770  
Cooling Degree Days 0 0  
Month to date cooling degree days 11 0  
Year to date cooling degree days 2717 2474  
Moisture  
Dew Point 29 °F    
Average Humidity 71    
Maximum Humidity 92    
Minimum Humidity 50    
Precipitation  
Precipitation 0.00 in 0.15 in 2.18 in (1904)
Month to date precipitation 4.98 3.81  
Year to date precipitation 53.45 50.45  
Snow  
Snow 0.00 in - - ()
Month to date snowfall T  
Since 1 July snowfall T  
Snow Depth 0.00 in    
Sea Level Pressure  
Sea Level Pressure 30.47 in    
Wind  
Wind Speed 4 mph (ESE)    
Max Wind Speed 10 mph    
Max Gust Speed 15 mph    
Visibility 10 miles    
Events      
T = Trace of Precipitation, MM = Missing Value Source: NWS Daily Summary

Daily Weather History Graph

Daily Weather History Graph

Search for Another Location

Airport:

Trip Planner

Search our weather history database for the weather conditions in past years. The results will help you decide how hot, cold, wet, or windy it might be!

Date:

Astronomy

Dec. 24, 2013 Rise Set
Actual Time 7:14 AM CST 5:15 PM CST
Civil Twilight 6:47 AM CST 5:42 PM CST
Nautical Twilight 6:16 AM CST 6:13 PM CST
Astronomical Twilight 5:46 AM CST 6:43 PM CST
Moon No Moon Rise 11:30 AM CST (12/24)
Length of Visible Light 10h 55m
Length of Day
10h 01m
Waning Gibbous, 58% of the Moon is Illuminated
Dec 24
Waning Gibbous
Dec 25
Last Quarter
Jan 1
New
Jan 7
First Quarter
Jan 15
Full

Hourly Weather History & Observations

Time (CST) Temp. Windchill Dew Point Humidity Pressure Visibility Wind Dir Wind Speed Gust Speed Precip Events Conditions
12:56 AM 30.0 °F - 27.0 °F 88% 30.52 in 10.0 mi Calm Calm - N/A   Clear
1:56 AM 28.9 °F - 26.1 °F 89% 30.53 in 9.0 mi Calm Calm - N/A   Clear
2:56 AM 28.0 °F 24.2 °F 26.1 °F 92% 30.53 in 8.0 mi West 3.5 mph - N/A   Clear
3:56 AM 28.0 °F - 26.1 °F 92% 30.54 in 9.0 mi Calm Calm - N/A   Clear
4:56 AM 28.9 °F - 25.0 °F 85% 30.54 in 10.0 mi Calm Calm - N/A   Clear
5:56 AM 28.0 °F - 25.0 °F 88% 30.56 in 10.0 mi Calm Calm - N/A   Clear
6:56 AM 28.0 °F - 26.1 °F 92% 30.55 in 7.0 mi Calm Calm - N/A   Clear
7:56 AM 30.0 °F - 28.0 °F 92% 30.56 in 7.0 mi Calm Calm - N/A   Clear
8:56 AM 36.0 °F 30.3 °F 30.0 °F 79% 30.57 in 9.0 mi East 6.9 mph - N/A   Clear
9:56 AM 39.0 °F 34.8 °F 28.9 °F 67% 30.59 in 10.0 mi ESE 5.8 mph - N/A   Clear
10:56 AM 42.1 °F 37.7 °F 28.9 °F 60% 30.56 in 10.0 mi East 6.9 mph - N/A   Clear
11:56 AM 45.0 °F 41.8 °F 30.0 °F 56% 30.53 in 10.0 mi East 5.8 mph - N/A   Clear
12:56 PM 46.9 °F - 30.0 °F 52% 30.49 in 10.0 mi East 5.8 mph - N/A   Clear
1:56 PM 48.0 °F - 30.0 °F 50% 30.46 in 10.0 mi East 6.9 mph - N/A   Clear
2:56 PM 48.9 °F - 30.0 °F 48% 30.44 in 10.0 mi SSE 6.9 mph - N/A   Clear
3:56 PM 48.9 °F - 30.0 °F 48% 30.43 in 10.0 mi SE 6.9 mph - N/A   Clear
4:56 PM 46.9 °F - 30.9 °F 54% 30.41 in 10.0 mi ESE 6.9 mph - N/A   Clear
5:56 PM 42.1 °F - 32.0 °F 67% 30.40 in 10.0 mi Calm Calm - N/A   Clear
6:56 PM 37.9 °F - 32.0 °F 79% 30.38 in 10.0 mi Calm Calm - N/A   Clear
7:56 PM 39.0 °F 34.8 °F 32.0 °F 76% 30.37 in 10.0 mi SE 5.8 mph - N/A   Clear
8:56 PM 39.0 °F 35.7 °F 30.9 °F 73% 30.37 in 10.0 mi SSE 4.6 mph - N/A   Clear
9:56 PM 37.9 °F 33.5 °F 30.0 °F 73% 30.36 in 10.0 mi SE 5.8 mph - N/A   Clear
10:56 PM 37.0 °F 33.3 °F 30.0 °F 76% 30.37 in 10.0 mi SE 4.6 mph - N/A   Clear
11:56 PM 36.0 °F 30.3 °F 30.0 °F 79% 30.35 in 10.0 mi SE 6.9 mph - N/A   Clear